Regional Weather Roundup
Issued by NWS

Home | Current Version | Previous Version | Graphics & Text | Print | Product List | Glossary On
Versions: 1 2 3 4 5 6 7 8 9 10 11 12 13 14 15 16 17 18 19 20 21 22 23 24 25 26 27 28 29 30 31 32 33 34 35 36 37 38 39 40 41 42 43 44 45 46 47 48 49 50
000
ASUS43 KDTX 300901
RWRMI
MICHIGAN HOURLY REGIONAL WEATHER ROUNDUP
NATIONAL WEATHER SERVICE DETROIT/PONTIAC MI
500 AM EDT SUN AUG 30 2015

NOTE: "FAIR" INDICATES FEW OR NO CLOUDS BELOW 12,000 FEET WITH NO
SIGNIFICANT WEATHER AND/OR OBSTRUCTION TO VISIBILITY.

MIZ047>049-052>055-059>063-066>070-074>076-081>083-301000-
SOUTHEAST LOWER MICHIGAN

CITY           SKY/WX    TMP DP  RH WIND       PRES   REMARKS
ADRIAN         CLOUDY    66  64  93 S3        30.05R FOG
ALMA           CLOUDY    64  64  99 NE3       30.04S FOG
ANN ARBOR      CLOUDY    66  64  93 CALM      30.04R FOG
BAD AXE        CLOUDY    64  62  94 CALM      30.06R
CARO           CLOUDY    63  63  99 CALM      30.04S FOG
DETROIT CITY   CLOUDY    68  65  90 CALM      30.04S
DETROIT        CLOUDY    68  65  90 CALM      30.04S
FLINT          LGT RAIN  68  64  87 SE3       30.04S FOG
GROSSE ILE     CLOUDY    70  66  88 CALM      30.02S
HILLSDALE      CLOUDY    66  66 100 S5        30.04S
HOWELL         LGT RAIN  66  65  98 CALM      30.03S

CITY           SKY/WX    TMP DP  RH WIND       PRES   REMARKS
JACKSON        CLOUDY    66  64  93 S5        30.03S FOG
LAMBERTVILLE   CLOUDY    69  67  92 CALM      30.04S FOG
LANSING        CLOUDY    65  64  97 NE3       30.03S
LAPEER         DRIZZLE   64  64  99 CALM      30.05S
MASON          CLOUDY    66  63  89 SE3       30.03S FOG
MONROE         CLOUDY    67  66  97 CALM      30.03S FOG
MT. CLEMENS    CLOUDY    67  65  95 E2        30.02F
PONTIAC        CLOUDY    66  65  96 CALM      30.04S FOG
PORT HOPE        N/A     65  63  93 CALM      30.04S
PORT HURON     CLOUDY    64  64 100 CALM      30.05R FOG
TRI CITIES     CLOUDY    66  63  90 E3        30.05S FOG
MIDLAND        CLOUDY    64  63  96 CALM      30.04S FOG
TROY           CLOUDY    67  66  97 CALM      30.05S FOG
SAGINAW HB     DRIZZLE   63  63 100 CALM      30.04S
$$
MIZ043>046-050>051-056>058-064>065-071>073-077>080-301000-
SOUTHWEST LOWER MICHIGAN

CITY           SKY/WX    TMP DP  RH WIND       PRES   REMARKS
BATTLE CREEK   CLOUDY    67  64  90 SW3       30.03R
BENTON HARBOR  CLOUDY    68  66  93 W3        30.01S FOG
BIG RAPIDS     CLOUDY    63  62  97 CALM      30.04S FOG
COLDWATER      CLOUDY    67  67  97 S3        30.03R
FREMONT        CLOUDY    64  64 100 CALM      30.03S FOG
HOLLAND        CLOUDY    68  65  90 NE3       30.01F FOG
GRAND RAPIDS   CLOUDY    66  65  96 CALM      30.02S FOG
IONIA          CLOUDY    65  65 100 CALM      30.02S FOG
KALAMAZOO      CLOUDY    67  65  93 S3        30.02S FOG
LUDINGTON      FOG       61  59  94 N3        30.05R VSB 1/2
MARSHALL       CLOUDY    62  62  97 CALM      30.02S FOG
MOUNT PLEASANT CLOUDY    65  63  93 CALM      30.04S FOG
MUSKEGON       CLOUDY    66  63  90 NE5       30.02S FOG
SOUTH HAVEN    CLOUDY    68  67  96 CALM      30.00S FOG
$$
MIZ016>042-301000-
NORTHERN LOWER MICHIGAN

CITY           SKY/WX    TMP DP  RH WIND       PRES   REMARKS
ALPENA         FOG       55  54  96 SW3       30.06S VSB 1/4
BEAVER ISLAND  MOCLDY    61  60  97 SW3       30.03F FOG
BELLAIRE       FOG       56  55  97 CALM      30.05S VSB 1/4
CADILLAC       CLOUDY    58  55  92 CALM      30.06R FOG
CHARLEVOIX     CLEAR     57  57  99 CALM      30.07S
FRANKFORT      CLEAR     55  55  97 CALM      30.05S
GAYLORD        CLOUDY    53  53 100 CALM      30.07R FOG
GRAYLING       FOG       53  52  97 CALM      30.07S VSB<1/4
HARBOR SPRINGS CLOUDY    56  55  98 CALM      30.04F
HOUGHTON LAKE  FOG       53  53 100 CALM      30.07R VSB<1/4
MANISTEE       CLOUDY    57  54  88 CALM      30.05S VSB 1/2
OSCODA         FOG       55  55  99 CALM      30.04F VSB 1/4
PELLSTON       CLEAR     50  49  96 CALM      30.05S
ROGERS CITY    CLEAR     59  57  94 SW5       30.05S
TRAVERSE CITY  CLOUDY    60  57  89 CALM      30.04S
$$
MIZ007>008-015-301000-
EASTERN UPPER MICHIGAN

CITY           SKY/WX    TMP DP  RH WIND       PRES   REMARKS
KINROSS        CLOUDY    59  57  94 SW3       30.03S VSB 1/2
MACKINAC ISLAN CLEAR     61  59  95 SW7       30.03S
NEWBERRY       FOG       59  59  99 SW9       30.02S VSB 3/4
S. S. MARIE    FOG       59  58  96 CALM      30.03S VSB 1/2
$$
MIZ004>006-011>014-085-301000-
CENTRAL UPPER MICHIGAN

CITY           SKY/WX    TMP DP  RH WIND       PRES   REMARKS
MANISTIQUE     CLOUDY    61  60  97 SW5       30.02S FOG
ESCANABA         N/A     57  55  94 SW3       30.02S VSB 3/4
MENOMINEE      CLOUDY    57  54  88 CALM      30.03S VSB 1/4
SAWYER-GWINN   FOG       59  58  96 SW5       30.02S VSB 3/4
$$
MIZ001>003-009>011-084-301000-
WESTERN UPPER MICHIGAN

CITY           SKY/WX    TMP DP  RH WIND       PRES   REMARKS
IRON MOUNTAIN  CLEAR     55  54  96 CALM      30.02F FOG
HOUGHTON       PTCLDY    58  57  97 CALM      29.97F
IRONWOOD       PTCLDY    63  61  94 SW5       29.97S
$$

ABBREVIATIONS USED IN REMARKS
   TC - TEMPERATURE IN CELSIUS
  WCI - WIND CHILL INDEX
   HX - HEAT INDEX
  VSB - VISIBILITY



USA.gov is the U.S. government's official web portal to all federal, state and local government web resources and services.